Погода в Михайловке

Россия / Новосибирская область     55°35′22″N   79°21′12″E
темп.,
°C
ветер,
м/с
пор.,
м/с
влажн.,
%
обл.,
%
осадки,
мм/ч
давл.,
гПа
погр.,
м
17 мая, пн
пн1701:00+14ссв36955 0.4 1013154
04:00+13св24977 0.0 101475
07:00+13ссв229419 0.0 1015100
10:00+19зсз346849 0.0 1016687
13:00+23зсз464816 0.0 10151648
16:00+25зсз584291 0.0 10132137
19:00+21ю476621 0.6 1010199
22:00+16вюв6879100 9.1 1011132
18 мая, вт
вт1801:00+15ю7158474 9.6 1009290
04:00+16юз487895 0.0 1006123
07:00+17зсз715664 0.1 1006480
10:00+18сз686640 0.0 1007740
13:00+22сз565217 0.0 10071420
16:00+23ссз5746100 0.0 10061991
19:00+17св677399 0.3 1006608
22:00+13всв5894100 7.2 1007429
19 мая, ср
ср1901:00+11св5888100 7.6 1009572
04:00+10ссв6989100 0.1 1010640
07:00+9ссв51083100 0.1 1011811
10:00+11ссв786141 0.0 1013855
13:00+13ссв784433 0.0 10141774
16:00+13с893625 0.0 10152264
19:00+12ссв694292 0.0 10152425
22:00+8с4105027 0.0 1016278
20 мая, чт
чт2001:00+5с51159100 0.0 1017331
04:00+4с6115697 0.0 1018458
07:00+2с510625 0.0 1020445
10:00+5с68405 0.0 10211858
13:00+8с573731 0.0 10212004
16:00+9ссз5636100 0.0 10202064
19:00+9сз4439100 0.0 10211784
22:00+6з3554100 0.0 1021118
21 мая, пт
пт2101:00+5зюз226084 0.0 102022
04:00+3ююз2267100 0.0 102030
07:00+4ю3670100 0.0 1020269
10:00+6ююз4677100 0.1 1021429
13:00+7ююз4678100 0.1 1021552
16:00+8ю3687100 0.9 1021323
19:00+10ю367766 1.0 1019358
22:00+9ю4984100 0.3 1018192